www.pogodaiklimat.ru

Погода и климат >> Архив погоды >> Индонезия >> Рутенг


ПОГОДА в Рутенге

  • Прогноз погоды в Рутенге
  • Монитор погоды в Рутенге

АРХИВ ПОГОДЫ в Рутенге

Время (UTC), дата Ветер
(напр.,м/с)
 
Видим.   Явления Облачность Т
(С)
Тd
(С)
f
(%)
Тe
(С)
Тes
(С)
Комфортность P
(гПа)
Po
(гПа)
Тmin
(С)
Tmax
(С)
R
(мм)
R24
(мм)
S
(см)
00 18.03 ЮВ 3 1000 м в посл. час дождь 9/8 300 м
[Cu med, cong As op Ci fib]
+19.0 +18.3 96 +21 +22 комфорт 1010.6 887.8 +18.4 17
06 18.03 ЮВ 4 3000 м слаб. дождь 10/8 300 м
[Cu med, cong As op Ci fib]
+19.4 +19.1 98 +22 +23 комфорт 1009.0 886.1 18
09 18.03 ЮВ 6 4000 м {дождь} 10/8 300 м
[Cu med, cong Ac As Ci fib]
+19.2 +17.8 92 +21 +21 комфорт 1008.1 885.1 1
12 18.03 ЮВ 5 4000 м слаб. дождь 10/8 400 м
[Cu med, cong As op Ci fib]
+19.0 +18.3 96 +20 +20 1009.8 887.0 +23.2 2
00 19.03 ЮВ 1 1000 м слаб. дождь 10/8 300 м
[Cu med, cong As op Ci fib]
+19.4 +18.7 96 +23 +23 комфорт 1009.8 887.0 12
03 19.03 ЮВ 2 1000 м слаб. дождь 10/8 300 м
[Cu med, cong As op Ci fib]
+20.2 +19.8 98 +25 +27 комфорт 1009.8 887.0 5
06 19.03 ЮВ 3 4000 м слаб. дождь 10/8 400 м
[Cu med, cong As op Ci fib]
+20.6 +19.8 95 +25 +27 комфорт 1008.0 885.2 4
09 19.03 ЮВ 7 4000 м в посл. час дождь 9/6 400 м
[Cu med, cong Ac As Ci fib]
+20.0 +19.7 98 +23 +23 комфорт 1006.7 883.9 16
12 19.03 Ю 4 4000 м слаб. дождь 10/8 400 м
[Cu med, cong As op Ci fib]
+19.4 +18.8 96 +22 +22 комфорт 1009.2 886.3 +23.6 2
00 20.03 ЮВ 4 2000 м слаб. дождь 10/8 300 м
[Cu med, cong Ac As Ci fib]
+19.6 +19.3 98 +22 +23 комфорт 1010.2 887.3 +19.0 2
03 20.03 Ю 3 200 м слаб. дождь {туман} ?/? +20.2 +20.2 100 +24 +24 комфорт 1010.2 887.3 4
06 20.03 Ю 4 5000 м слаб. дождь {туман} 10/8 300 м
[Cu med, cong As op Ci fib]
+20.6 +19.5 93 +25 +26 комфорт 1008.8 886.1 1
09 20.03 ЮВ 2 2000 м слаб. дождь 10/8 300 м
[Cu med, cong Ac As Ci fib]
+20.2 +19.3 95 +24 +25 комфорт 1008.3 885.5 4
12 20.03 В 3 5000 м в посл. час дождь 9/6 300 м
[Cu med, cong Ac As Ci fib]
+19.6 +18.9 96 +23 +23 комфорт 1010.5 887.6 +21.2 1
00 21.03 штиль 0 50 км ?/? +20.6 +18.3 87 +24 +24 комфорт 1010.7 887.8 +19.0 11
03 21.03 В 1 10 км 8/6 300 м
[Cu med, cong As op Ci fib]
+22.2 +19.0 82 +28 +35 душно 1010.6 887.8
06 21.03 Ю 7 5000 м осадки на расстоянии 10/8 300 м
[Cu med, cong As op Ci fib]
+22.0 +19.8 87 +28 +28 душно 1009.6 886.7
09 21.03 ЮВ 3 6000 м 9/6 300 м
[Cu med, cong As op Ci fib]
+21.8 +19.6 87 +27 +27 душно 1009.0 886.1
12 21.03 В 2 6000 м 6/5 400 м
[Cu med, cong As op Ci fib]
+20.0 +18.4 91 +24 +24 комфорт 1010.4 887.6 +23.6
00 22.03 Ю 1 10 км 8/5 450 м
[Cu med, cong Ac As Ci fib]
+20.2 +18.6 91 +25 +27 комфорт 1010.9 888.0 +19.2
03 22.03 ЮВ 4 16 км 8/3 450 м
[Cu hum Ac trans Ci fib]
+24.0 +18.9 73 +29 +35 душно 1010.3 887.5
06 22.03 Ю 3 12 км 9/6 400 м
[Cu med, cong As op Ci fib]
+23.2 +20.8 86 +31 +34 очень
душно
1009.3 886.4
09 22.03 ЮЗ 2 12 км 9/8 400 м
[Cu med, cong As op Ci fib]
+22.0 +20.5 91 +28 +28 душно 1009.1 886.2
12 22.03 Ю 2 10 км 8/8 400 м
[Cu med, cong As op Ci fib]
+20.2 +19.0 93 +25 +25 комфорт 1010.1 887.2 +25.0
00 23.03 Ю 6 6000 м {дождь} 9/6 400 м
[Cu med, cong As op Ci fib]
+21.8 +19.0 84 +27 +27 душно 1010.4 887.6 +19.6 1
03 23.03 З 3 12 км 8/6 400 м
[Cu med, cong As op Ci fib]
+23.2 +21.1 88 +31 +36 очень
душно
1010.5 887.7
06 23.03 ЮЗ 3 4000 м слаб. дождь 10/8 300 м
[Cu med, cong As op Ci fib]
+21.2 +20.4 95 +26 +28 душно 1009.0 886.1 6
09 23.03 ЮЗ 2 4000 м в посл. час дождь 10/8 360 м
[Cu med, cong As op Ci fib]
+21.2 +19.3 89 +26 +26 душно 1008.3 885.4 0.6
12 23.03 Ю 4 2000 м слаб. дождь 9/6 300 м
[Cu med, cong As op Ci fib]
+19.2 +17.8 92 +21 +21 комфорт 1009.6 886.8 +25.8 1
00 24.03 ЮЗ 2 4000 м мгла 10/8 300 м
[Cu med, cong As op Ci fib]
+19.6 +18.9 96 +23 +23 комфорт 1010.4 887.6 +19.0 8
03 24.03 ЮЗ 6 3000 м слаб. дождь 10/8 300 м
[Cu med, cong As op Ci fib]
+21.0 +20.4 96 +26 +27 душно 1011.7 887.8 2
06 24.03 ЮЗ 4 4000 м слаб. дождь 10/8 360 м
[Cu med, cong As op Ci fib]
+20.6 +19.8 95 +25 +26 комфорт 1008.3 885.5 1
09 24.03 ЮЗ 3 4000 м слаб. дождь 9/8 400 м
[Cu med, cong As op Ci fib]
+21.0 +19.0 88 +26 +26 душно 1009.3 886.4 1
12 24.03 ЮЗ 3 4000 м осадки на расстоянии 10/8 400 м
[Cu med, cong Ac As Ci fib]
+19.4 +19.0 98 +22 +22 комфорт 1011.2 888.3 +24.0 1

 

Местоположение метеостанции Рутенг (Индонезия): широта -8.63 долгота 120.45 высота над уровнем моря 1170 м.

В архиве по умолчанию представлена погода в Рутенге за последнюю неделю. Архивные данные за месяц целиком и за предыдущие месяцы, начиная с января 2011 года, Вы можете получить, выбрав интересующий диапазон дат из раскрывающегося списка и нажав кнопку "Ввод!".


*Определитесь, кто Вы:
робот инопланетянин человек

Внимание! Время в таблицах - всемирное. Для получения местного времени необходимо прибавить поправку, которая равна 8 ч.

Смотрите также архив погоды в соседних городах и на ближайших метеорологических станциях:

Погода в Аэропорту Умбу Механг Кунда (Индонезия) (116 км)
Погода в Биме (Индонезия) (193 км)
Погода в Маумере (Индонезия) (198 км)
Погода в Сабу (Индонезия) (257 км)
Погода в Ларантуке (Индонезия) (280 км)
Погода в Сумбава-Бесаре (Индонезия) (335 км)
Погода на Роти (Индонезия) (370 км)
Погода в Купанге (Индонезия) (391 км)
Погода в Аэропорту Султана Хасануддин (Индонезия) (408 км)
Погода в Уджангпанданге (Индонезия) (408 км)

Пояснения к столбцам:

Ветер - указаны скорость ветра в м/с - средняя за 10 мин, порывы в срок и между сроками (в фигурных скобках) и направление, откуда дует ветер: С - северный, СВ - северо-восточный, В - восточный, ЮВ - юго-восточный, Ю - южный, ЮЗ - юго-западный, З - западный, СЗ - северо-западный.
Видимость - горизонтальная дальность видимости в метрах или километрах. При видимости от 1 до 10 км при отсутствии осадков обычно наблюдается дымка, при ухудшении видимости до 1 км и менее - туман. В сухую погоду видимость может ухудшаться дымом, пылью или мглою.
Явления - указаны атмосферные явления, наблюдавшиеся в срок или в последний час перед сроком; фигурными скобками обозначены явления, наблюдавшиеся между сроками (за 1-3 часа до срока); квадратными скобками обозначены град или гололедные отложения с указанием их диаметра в мм.
Облачность - указаны через наклонную черту общая и нижняя облачность в баллах и высота нижней границы облаков в метрах; квадратными скобками обозначены формы облаков: Ci - перистые, Cs - перисто-слоистые, Cc - перисто-кучевые, Ac - высококучевые, As - высокослоистые, Sc - слоисто-кучевые, Ns - слоисто-дождевые, Cu - кучевые, Cb - кучево-дождевые. Подробнее классификацию облаков см. в Атласе облаков (PDF).
T - Температура воздуха - температура, измеренная на высоте 2 м над землей.
Td - Температура точки росы - температура, при понижении до которой содержащийся в воздухе водяной пар достигнет насыщения.
f - Относительная влажность воздуха - влажноcть воздуха, измеренная на высоте 2 м над землей.
Te - Эффективная температура - температура, которую ощущает одетый по сезону человек в тени. Характеристика душности погоды. При расчете учитывается влияние влажности воздуха и скорости ветра на теплоощущения человека.
Tes - Эффективная температура на солнце - температура, которую ощущает человек, с поправкой на солнечный нагрев. Характеристика знойности погоды. Зависит от высоты солнца над горизонтом, облачности и скорости ветра. Ночью, в пасмурную погоду, а также при ветре 12 м/с и более поправка равна нулю.
P - Атмосферное давление - приведенное к уровню моря атмосферное давление.
Po - Атмосферное давление - измеренное на уровне метеостанции атмосферное давление.
Tmin - Минимальная температура - минимум температуры воздуха на высоте 2 м над землей.
Tmax - Максимальная температура - максимум температуры воздуха на высоте 2 м над землей.
R - Количество осадков - Количество выпавших осадков за период времени, мм. При наведении курсора мыши на число - период времени, за который выпало указанное количество осадков.
R24 - Количество осадков - Количество выпавших осадков за 24 часа, мм.
S - Снежный покров - Высота снежного покрова, см. При наведении курсора мыши на число - состояние снежного покрова и степень покрытия местности в баллах.